COSMOS 2506 DEB, 47212

Orbit data source: Space-Track

COSMOS 2506 DEB, 47212 is space debris in SSO originally from a launch on Tue, 23 Jun 2015 UTC launched from the Plesetsk Missile And Space Complex (PKMTR). Debris objects in space refer to the collection of defunct objects orbiting the Earth. Examples of debris include non-operational satellites, rocket bodies, and fragments generated from explosions, collisions, or faulty payload assembly.

Loading next visibility...
Identifier
47212, 2015-029C
Orbit
SSO
Country
Flag of CISCIS
Related business
Manufacturer
Unknown
Mission
Spacecraft
Bus & Motor
Unknown
Mass
Unknown
Launch date (UTC)
2015-06-23 (11 years ago)
Launch vehicle
Unknown
Launch site
Plesetsk Missile And Space Complex (PKMTR)
Object type
Payload
Rocket body
Debris
Shape & HBR
Unknown shape, 0.1 m
Radar Cross Section
Small (<0.1 m²)

Expand to show TLE details & history
Last TLE update: 2 days ago

TLE from 2 days ago
0 COSMOS 2506 DEB
1 47212U 15029C   26171.14517438  .00003281  00000-0  51998-3 0  9992
2 47212  98.1160 244.0572 0008138 121.9438 238.2562 14.72874054298071
Epoch: 2026-06-20T03:29Z
TLE epoch observation values (Epoch: 2026-06-20T03:29:03.066Z)
Latitude
0.00001°
Longitude
-76.56958°
Altitude
657.927 km
Speed
7.527 km/s
True Right ascension
16h 16m 13s
True Declination
0° 00' 00"
Sunlit
Object was in full shadow at epoch
Visualization orbit readout
Latitude
Unknown
Longitude
Unknown
Altitude
Unknown
Speed
Unknown
Apparent Right ascension
Unknown
Apparent Declination
Unknown
Sunlit
N/A
Visualization observer readout
Local Sidereal Time
21:42:35
Azimuth
Unknown
Elevation
Unknown
Doppler factor
Unknown
Orbital elements
Apogee altitude
654.687 km
Perigee altitude
643.249 km
Semi-major axis
7,027.105 km
Eccentricity
0.00081
Inclination
98.116°
RAAN
244.0572°
Arg. of periapsis
121.9438°
True anomaly
238.17694°
Mean anomaly
238.2562°
Eccentric anomaly
238.21656°
Mean motion
3.6845 °/min
Orbital period
97.71 mins
BSTAR
0.00051998
Loading maneuver chart data...
Computing Atmospheric mass density...
Loading historical data...
Loading historical data...
Loading historical data...
Loading historical data...
Loading historical data...
Loading historical data...
Loading historical data...
Other satellites on launch #29 in the year 2015 (2015-06-23 UTC)

Documentation

Showing up to 5 results
|